Location: Gunnison Valley Observatory
(38.5087°N, 106.9386°W)
Time: 21:47:30
(UTC-06:00)

Amateur Radio Satellites - All Passes

Search period start: 22 October 2014 21:17
Search period end: 23 October 2014 21:17
Location: Gunnison Valley Observatory, 38.5087°N, 106.9386°W

Satellite Date Start Highest point End Downlink Frequencies (MHz)
Time Altitude Azimuth
FUNcube-1 22 Oct 21:21:31 21:23:20 12° 64° (ENE) 21:25:09 145.950 - 145.970 MHz USB
SO-50 22 Oct 21:25:28 21:28:28 16° 43° (NE) 21:31:28 436.795 FM
STRAND 1 22 Oct 21:26:18 21:29:35 17° 297° (WNW) 21:32:52 ?
Oscar 11 22 Oct 21:27:19 21:31:08 31° 71° (ENE) 21:34:57 145.825 FM, Beacon 2401.500 USB
KITSAT 1 22 Oct 21:49:01 21:56:57 56° 55° (NE) 22:04:49 435.175 FM
ZACube-1 22 Oct 22:09:36 22:13:53 40° 72° (ENE) 22:18:09 437.345 MHz
UKube-1 22 Oct 22:19:12 22:23:28 56° 259° (W) 22:27:46 145.840 MHz, 145.915 MHz
HO-68 22 Oct 22:25:09 22:31:18 31° 264° (W) 22:37:32 435.675 MHz FM
FUNcube-1 22 Oct 22:54:35 22:59:09 66° 259° (W) 23:03:42 145.950 - 145.970 MHz USB
RS-15 22 Oct 22:56:44 23:07:43 76° 116° (ESE) 23:18:36 29.354 - 29.394 USB, Beacon 29.352 USB
UOSAT-12 22 Oct 23:01:56 23:04:17 14° 41° (NE) 23:06:37 437.025 FM, 437.400 FM
Oscar 11 22 Oct 23:04:03 23:07:19 21° 266° (W) 23:10:36 145.825 FM, Beacon 2401.500 USB
SO-50 22 Oct 23:04:42 23:09:34 76° 241° (WSW) 23:14:26 436.795 FM
KITSAT 1 22 Oct 23:45:04 23:51:54 32° 254° (WSW) 23:58:43 435.175 FM
ZACube-1 22 Oct 23:47:12 23:50:23 18° 267° (W) 23:53:34 437.345 MHz
MaSat-1 23 Oct 00:04:01 00:07:57 36° 110° (ESE) 00:11:36 437.345 MHz
UOSAT-12 23 Oct 00:40:22 00:45:06 89° 240° (WSW) 00:49:44 437.025 FM, 437.400 FM
JAS-1B 23 Oct 01:11:06 01:13:29 12° 91° (E) 01:15:59 435.800 - 435.900 CW/SSB
RS-15 23 Oct 01:11:30 01:21:05 34° 321° (NW) 01:30:46 29.354 - 29.394 USB, Beacon 29.352 USB
MaSat-1 23 Oct 01:40:50 01:43:43 18° 302° (WNW) 01:46:26 437.345 MHz
Oscar 10/S400 23 Oct 01:45:52 02:47:27 21° 244° (WSW) 05:09:34 145.825 - 145.975 CW/USB, Beacon 145.810 USB
Oscar 19 23 Oct 02:00:40 02:05:07 30° 96° (E) 02:09:33 437.125 CW, 437.150 USB
AO-27 23 Oct 02:14:15 02:17:24 16° 92° (E) 02:20:32 436.795 MHz FM
Oscar 16 23 Oct 02:45:35 02:50:44 85° 104° (ESE) 02:55:51 437.025 USB, Beacon 2401.1428
AO-Echo 23 Oct 02:57:01 03:02:16 57° 100° (E) 03:07:29 ?
JAS-1B 23 Oct 02:57:54 03:04:34 81° 104° (ESE) 03:12:34 435.800 - 435.900 CW/SSB
Uribyol 2 23 Oct 03:01:32 03:06:36 49° 100° (E) 03:11:37 436.500 FM
ITAMSAT 1 23 Oct 03:07:00 03:12:07 52° 100° (E) 03:17:11 435.822 SSB
PCSat 23 Oct 03:07:21 03:08:25 11° 101° (ESE) 03:09:28 145.825 MHz
Gurwin Techsat 1B 23 Oct 03:15:09 03:19:55 33° 97° (E) 03:24:38 435.225 FM
TMSAT-1 23 Oct 03:27:46 03:32:28 31° 96° (E) 03:37:08 436.925 FM
RS-15 23 Oct 03:32:07 03:38:22 16° 355° (N) 03:44:42 29.354 - 29.394 USB, Beacon 29.352 USB
Oscar 19 23 Oct 03:39:58 03:44:23 30° 292° (WNW) 03:48:47 437.125 CW, 437.150 USB
AO-27 23 Oct 03:52:07 03:57:15 57° 288° (WNW) 04:02:21 436.795 MHz FM
Sapphire 23 Oct 04:23:00 04:28:15 54° 113° (ESE) 04:33:31 437.095 MHz 1200 baud AX-25 AFSK
Oscar 16 23 Oct 04:27:44 04:29:20 11° 300° (WNW) 04:30:56 437.025 USB, Beacon 2401.1428
AO-Echo 23 Oct 04:37:02 04:40:32 18° 296° (WNW) 04:44:02 ?
Uosat F 23 Oct 04:41:05 04:44:56 22° 94° (E) 04:48:46 435.120 FM
Uribyol 2 23 Oct 04:42:00 04:45:40 20° 296° (WNW) 04:49:20 436.500 FM
PCSat 23 Oct 04:45:35 04:50:59 88° 298° (WNW) 04:56:27 145.825 MHz
ITAMSAT 1 23 Oct 04:47:36 04:51:10 19° 296° (WNW) 04:54:43 435.822 SSB
JAS-1B 23 Oct 04:50:34 04:54:41 18° 298° (WNW) 04:59:11 435.800 - 435.900 CW/SSB
Gurwin Techsat 1B 23 Oct 04:55:13 04:59:46 30° 292° (WNW) 05:04:17 435.225 FM
JAS-2 23 Oct 05:04:43 05:09:09 16° 88° (E) 05:13:33 435.800 - 435.900 CW/SSB, 435.910 FM
TMSAT-1 23 Oct 05:07:42 05:12:17 30° 292° (WNW) 05:16:51 436.925 FM
OPAL 23 Oct 05:18:46 05:23:55 75° 73° (ENE) 05:29:02 ?
AO-7 23 Oct 05:21:01 05:29:18 66° 104° (ESE) 05:37:33 29.400 - 29.500 MHz
RS-15 23 Oct 05:47:37 05:56:27 26° 32° (NNE) 06:05:29 29.354 - 29.394 USB, Beacon 29.352 USB
Sapphire 23 Oct 06:07:49 06:11:59 22° 311° (NW) 06:16:12 437.095 MHz 1200 baud AX-25 AFSK
Uosat F 23 Oct 06:19:08 06:23:50 40° 290° (WNW) 06:28:31 435.120 FM
PCSat 23 Oct 06:32:17 06:35:11 14° 316° (NW) 06:38:06 145.825 MHz
JAS-2 23 Oct 06:47:09 06:54:58 86° 104° (ESE) 07:02:48 435.800 - 435.900 CW/SSB, 435.910 FM
STRAND 1 23 Oct 07:00:14 07:05:19 70° 74° (ENE) 07:10:27 ?
OPAL 23 Oct 07:01:27 07:03:16 12° 267° (W) 07:05:04 ?
Hamsat 23 Oct 07:07:11 07:11:22 76° 284° (WNW) 07:15:34 145.90 MHz
AO-7 23 Oct 07:14:45 07:21:27 28° 302° (WNW) 07:28:10 29.400 - 29.500 MHz
RS-15 23 Oct 07:59:41 08:10:56 78° 58° (ENE) 08:22:39 29.354 - 29.394 USB, Beacon 29.352 USB
SO-67 23 Oct 08:02:54 08:06:19 58° 100° (E) 08:09:42 435.3500 MHz FM
Saudisat 1A 23 Oct 08:03:18 08:07:31 50° 117° (ESE) 08:11:47 436.775 MHz
PANSAT 23 Oct 08:12:12 08:13:09 11° 164° (SSE) 08:14:06 not established
JAS-2 23 Oct 08:33:46 08:39:02 21° 301° (WNW) 08:44:22 435.800 - 435.900 CW/SSB, 435.910 FM
STRAND 1 23 Oct 08:42:53 08:44:58 12° 270° (W) 08:47:04 ?
Saudisat 1A 23 Oct 09:44:17 09:47:22 18° 314° (NW) 09:50:28 436.775 MHz
PANSAT 23 Oct 09:50:00 09:52:37 18° 176° (S) 09:55:14 not established
MaSat-1 23 Oct 09:51:57 09:54:23 33° 61° (ENE) 09:56:38 437.345 MHz
HO-68 23 Oct 09:53:05 10:00:10 56° 102° (ESE) 10:07:10 435.675 MHz FM
UKube-1 23 Oct 10:09:10 10:12:52 26° 96° (E) 10:16:32 145.840 MHz, 145.915 MHz
RS-15 23 Oct 10:13:27 10:22:11 27° 257° (WSW) 10:31:15 29.354 - 29.394 USB, Beacon 29.352 USB
FUNcube-1 23 Oct 10:45:54 10:49:26 25° 95° (E) 10:52:54 145.950 - 145.970 MHz USB
Oscar 11 23 Oct 10:51:45 10:56:05 78° 102° (ESE) 11:00:22 145.825 FM, Beacon 2401.500 USB
PANSAT 23 Oct 11:29:49 11:32:09 16° 189° (S) 11:34:28 not established
ZACube-1 23 Oct 11:36:26 11:40:43 79° 283° (WNW) 11:44:53 437.345 MHz
HO-68 23 Oct 11:41:34 11:47:24 28° 299° (WNW) 11:53:14 435.675 MHz FM
UKube-1 23 Oct 11:45:21 11:48:57 25° 292° (WNW) 11:52:32 145.840 MHz, 145.915 MHz
Oscar 10/S400 23 Oct 11:59:03 12:19:12 25° 152° (SSE) 12:33:40 145.825 - 145.975 CW/USB, Beacon 145.810 USB
KITSAT 1 23 Oct 12:15:35 12:23:09 46° 110° (ESE) 12:30:45 435.175 FM
FUNcube-1 23 Oct 12:22:16 12:25:43 24° 291° (WNW) 12:29:05 145.950 - 145.970 MHz USB
Oscar 16 23 Oct 12:25:21 12:27:34 13° 61° (ENE) 12:29:46 437.025 USB, Beacon 2401.1428
Sapphire 23 Oct 13:12:34 13:17:27 33° 54° (NE) 13:22:19 437.095 MHz 1200 baud AX-25 AFSK
Oscar 19 23 Oct 13:16:05 13:20:49 38° 70° (ENE) 13:25:32 437.125 CW, 437.150 USB
SO-50 23 Oct 13:18:17 13:22:35 49° 116° (ESE) 13:27:01 436.795 FM
AO-27 23 Oct 13:30:51 13:34:48 22° 65° (ENE) 13:38:46 436.795 MHz FM
ISS 23 Oct 13:31:16 13:34:34 75° 139° (SE) 13:37:54 145.800 FM
PCSat 23 Oct 13:35:03 13:40:23 54° 58° (ENE) 13:45:39 145.825 MHz
JAS-1B 23 Oct 13:43:14 13:49:11 57° 72° (ENE) 13:54:44 435.800 - 435.900 CW/SSB
Oscar 16 23 Oct 14:01:03 14:06:14 78° 257° (WSW) 14:11:24 437.025 USB, Beacon 2401.1428
AO-Echo 23 Oct 14:08:36 14:13:22 61° 73° (ENE) 14:18:19 ?
KITSAT 1 23 Oct 14:11:07 14:18:36 41° 309° (NW) 14:26:09 435.175 FM
Uribyol 2 23 Oct 14:17:53 14:23:02 65° 73° (ENE) 14:28:13 436.500 FM
ITAMSAT 1 23 Oct 14:23:31 14:28:40 69° 74° (ENE) 14:33:52 435.822 SSB
AO-7 23 Oct 14:30:18 14:34:57 17° 50° (NE) 14:39:35 29.400 - 29.500 MHz
Gurwin Techsat 1B 23 Oct 14:34:46 14:39:47 45° 71° (ENE) 14:44:49 435.225 FM
TMSAT-1 23 Oct 14:47:02 14:52:00 43° 71° (ENE) 14:57:00 436.925 FM
UOSAT-12 23 Oct 14:50:12 14:54:28 38° 114° (ESE) 14:58:49 437.025 FM, 437.400 FM
Sapphire 23 Oct 14:56:00 15:00:50 33° 251° (WSW) 15:05:38 437.095 MHz 1200 baud AX-25 AFSK
Oscar 19 23 Oct 14:56:07 15:00:13 24° 265° (W) 15:04:20 437.125 CW, 437.150 USB
SO-50 23 Oct 15:00:06 15:03:25 20° 315° (NW) 15:06:49 436.795 FM
AO-27 23 Oct 15:09:05 15:14:00 43° 261° (W) 15:18:59 436.795 MHz FM
ISS 23 Oct 15:09:14 15:11:36 18° 337° (NNW) 15:13:58 145.800 FM
PCSat 23 Oct 15:19:34 15:23:19 19° 255° (WSW) 15:27:04 145.825 MHz
JAS-1B 23 Oct 15:36:31 15:40:13 17° 267° (W) 15:43:47 435.800 - 435.900 CW/SSB
AO-Echo 23 Oct 15:50:15 15:52:34 13° 270° (W) 15:54:56 ?
Uosat F 23 Oct 15:53:00 15:57:08 27° 67° (ENE) 16:01:18 435.120 FM
Uribyol 2 23 Oct 16:00:16 16:02:55 14° 269° (W) 16:05:35 436.500 FM
ITAMSAT 1 23 Oct 16:06:17 16:08:37 13° 269° (W) 16:10:59 435.822 SSB
KITSAT 1 23 Oct 16:13:54 16:16:39 12° 335° (NNW) 16:19:24 435.175 FM
Gurwin Techsat 1B 23 Oct 16:15:59 16:19:55 21° 266° (W) 16:23:53 435.225 FM
AO-7 23 Oct 16:18:08 16:26:22 76° 70° (ENE) 16:34:39 29.400 - 29.500 MHz
TMSAT-1 23 Oct 16:28:02 16:32:04 22° 266° (W) 16:36:07 436.925 FM
UOSAT-12 23 Oct 16:30:53 16:34:43 25° 312° (NW) 16:38:37 437.025 FM, 437.400 FM
Saudisat 1A 23 Oct 16:31:28 16:35:18 28° 50° (NE) 16:39:07 436.775 MHz
JAS-2 23 Oct 16:58:42 17:03:47 31° 64° (ENE) 17:09:25 435.800 - 435.900 CW/SSB, 435.910 FM
OPAL 23 Oct 17:31:07 17:34:50 21° 96° (E) 17:38:30 ?
Uosat F 23 Oct 17:31:16 17:35:46 33° 263° (W) 17:40:18 435.120 FM
Hamsat 23 Oct 17:58:47 18:02:56 62° 75° (ENE) 18:07:05 145.90 MHz
Saudisat 1A 23 Oct 18:10:59 18:14:49 29° 247° (WSW) 18:18:37 436.775 MHz
AO-7 23 Oct 18:13:59 18:19:51 21° 267° (W) 18:25:46 29.400 - 29.500 MHz
ISS 23 Oct 18:25:38 18:27:20 13° 18° (NNE) 18:29:02 145.800 FM
SO-67 23 Oct 18:35:15 18:37:20 15° 69° (ENE) 18:39:26 435.3500 MHz FM
JAS-2 23 Oct 18:43:18 18:48:39 39° 265° (W) 18:54:41 435.800 - 435.900 CW/SSB, 435.910 FM
OPAL 23 Oct 19:09:12 19:13:51 41° 292° (WNW) 19:18:26 ?
STRAND 1 23 Oct 19:12:54 19:17:13 26° 96° (E) 19:21:29 ?
ISS 23 Oct 20:01:20 20:04:37 55° 36° (NE) 20:07:54 145.800 FM
SO-67 23 Oct 20:07:11 20:10:05 25° 264° (W) 20:13:01 435.3500 MHz FM
KITSAT 1 23 Oct 20:10:39 20:16:25 21° 38° (NE) 20:22:08 435.175 FM
HO-68 23 Oct 20:20:20 20:26:43 37° 64° (ENE) 20:33:08 435.675 MHz FM
STRAND 1 23 Oct 20:51:47 20:56:24 34° 291° (WNW) 21:00:59 ?
UKube-1 23 Oct 21:03:46 21:06:57 20° 67° (ENE) 21:10:09 145.840 MHz, 145.915 MHz
